This is the latest recevied weather packets stored in our database for station/object JE4YKI-13. If no packets are shown the sender has not sent any weather packets the latest 10 day(s).
| Time | Temp. | Humidity | Pressure | Rain* | Wind** | Luminosity | Snow |
|---|---|---|---|---|---|---|---|
| 1777863517 | 18.33° C | 43% | 1009.1 hPa | 0 mm | - | - | - |
| 1777862917 | 18.33° C | 43% | 1009 hPa | 0 mm | - | - | - |
| 1777862316 | 18.33° C | 43% | 1009.1 hPa | 0 mm | - | - | - |
| 1777861716 | 18.33° C | 43% | 1008.9 hPa | 0 mm | - | - | - |
| 1777861116 | 18.33° C | 45% | 1008.9 hPa | 0 mm | - | - | - |
| 1777860516 | 18.33° C | 47% | 1008.7 hPa | 0 mm | - | - | - |
| 1777859915 | 17.78° C | 49% | 1008.7 hPa | 0 mm | - | - | - |
| 1777859315 | 17.78° C | 48% | 1008.6 hPa | 0 mm | - | - | - |
| 1777858715 | 17.78° C | 48% | 1008.4 hPa | 0 mm | - | - | - |
| 1777858114 | 17.78° C | 50% | 1008.4 hPa | 0 mm | - | - | - |
| 1777857514 | 17.78° C | 50% | 1008.2 hPa | 0 mm | - | - | - |
| 1777856913 | 18.33° C | 51% | 1008.2 hPa | 0 mm | - | - | - |
| 1777856313 | 18.33° C | 52% | 1008 hPa | 0 mm | - | - | - |
| 1777855713 | 18.33° C | 52% | 1007.9 hPa | 0 mm | - | - | - |
| 1777855113 | 18.33° C | 51% | 1007.7 hPa | 0 mm | - | - | - |
| 1777854512 | 18.33° C | 54% | 1007.7 hPa | 0 mm | - | - | - |
| 1777853311 | 17.78° C | 57% | 1007.5 hPa | 0 mm | - | - | - |
| 1777852711 | 17.78° C | 58% | 1007.6 hPa | 0 mm | - | - | - |
| 1777852111 | 17.22° C | 60% | 1007.1 hPa | 0 mm | - | - | - |
| 1777851509 | 17.22° C | 61% | 1007.2 hPa | 0 mm | - | - | - |
| 1777850909 | 17.22° C | 65% | 1007 hPa | 0 mm | - | - | - |
| 1777850309 | 17.78° C | 60% | 1007 hPa | 0 mm | - | - | - |
| 1777849709 | 17.22° C | 60% | 1006.9 hPa | 0 mm | - | - | - |
| 1777849108 | 17.22° C | 61% | 1006.7 hPa | 0 mm | - | - | - |
| 1777848508 | 17.22° C | 66% | 1006.6 hPa | 0 mm | - | - | - |
* Rain latest hour (hover to see other rain measurements)
** Current wind speed in m/s (hover to see current wind gust speed)